Starlink 34079

operational
NORAD ID: 64038 Int'l Des: 2025-102 Owner: SPXS Country: US Constellation: starlink
LEOCIRCULAR

Über Starlink 34079

Beschreibung wird geladen...

Live-Position

3D-Globus wird geladen...

Nächste Überflüge

Höhenverlauf

Altitude vs Time

uPlot chart will show altitude changes over time

Zweizeiliger Elementsatz

1 64038U 25102S 25341.74582903 .00013694 00000-0 11529-2 0 9997
2 64038 69.9994 346.1241 0003489 272.1466 87.9294 14.98342560 32288
Epoch: 7. Dez. 2025 • Age: 17 hours

Aktueller Status

Höhe 590.8 km
Geschwindigkeit 7.56 km/s
Subsatellitenpunkt -55.59°S, 66.15°E
Startdatum 16. Mai 2025
Alter 0.5 years
Typ internet

Technische Details

Klassifizierung Payload
Masse 575.00 kg
Trockenmasse 530.00 kg
Gesamtmasse 575.00 kg
Länge 0.30 m
Durchmesser 4.10 m
Spannweite 29.00 m
Form Box + pan
Hersteller SPXS
Bus-Typ Starlink V2MO
Phasenstatus In Orbit
Besitzer/Staat SPXS/US

Große Konstellationen

Loading constellations...